Weather History for KCDA - March, 2013

Change the Weather History Date:

Monday, March 4, 2013

  Actual Average (K1V4) Record (K1V4)
Temperature  
Mean Temperature 23 °F 25 °F  
Max Temperature 25 °F 36 °F 54 °F (1965)
Min Temperature 21 °F 13 °F -27 °F (1950)
Degree Days  
Heating Degree Days 42 40  
Month to date heating degree days 162  
Since 1 July heating degree days 5886  
Cooling Degree Days 0 0  
Month to date cooling degree days 0  
Year to date cooling degree days 0  
Moisture  
Dew Point 16 °F    
Average Humidity 76    
Maximum Humidity 84    
Minimum Humidity 66    
Precipitation  
Precipitation 0.00 in 0.07 in 0.81 in (1971)
Month to date precipitation 0.29  
Year to date precipitation 4.97  
Sea Level Pressure  
Sea Level Pressure 29.68 in    
Wind  
Wind Speed 8 mph (WNW)    
Max Wind Speed 15 mph    
Max Gust Speed 22 mph    
Visibility 8 miles    
Events Snow    
T = Trace of Precipitation, MM = Missing Value Source: NWS Daily Summary

Daily Weather History Graph

Daily Weather History Graph

Search for Another Location

Airport or City:

Trip Planner

Search our weather history database for the weather conditions in past years. The results will help you decide how hot, cold, wet, or windy it might be!

Date:

Astronomy

Mar. 04, 2013 Rise Set
Actual Time 6:19 AM EST 5:40 PM EST
Civil Twilight 5:50 AM EST 6:09 PM EST
Nautical Twilight 5:17 AM EST 6:43 PM EST
Astronomical Twilight 4:43 AM EST 7:17 PM EST
Moon 12:36 AM EST (3/4) 10:09 AM EST (3/4)
Length of Visible Light 12h 18m
Length of Day
11h 20m
Waning Gibbous, 52% of the Moon is Illuminated
Mar 4
Waning Gibbous
Mar 4
Last Quarter
Mar 11
New
Mar 19
First Quarter
Mar 27
Full

Hourly Weather History & Observations

Time (EST) Temp. Windchill Dew Point Humidity Pressure Visibility Wind Dir Wind Speed Gust Speed Precip Events Conditions
12:15 AM 22.6 °F 10.7 °F 17.2 °F 80% 29.62 in 10.0 mi WNW 12.7 mph 16.1 mph N/A   Unknown
12:35 AM 22.6 °F 13.4 °F 17.1 °F 79% 29.62 in 10.0 mi WNW 8.1 mph - N/A   Unknown
12:55 AM 22.6 °F 12.6 °F 16.7 °F 78% 29.62 in 10.0 mi WNW 9.2 mph - N/A   Unknown
1:15 AM 22.6 °F 16.5 °F 16.7 °F 78% 29.62 in 10.0 mi NW 4.6 mph - N/A   Unknown
1:35 AM 22.8 °F 16.7 °F 16.7 °F 77% 29.63 in 10.0 mi NW 4.6 mph - N/A   Unknown
1:55 AM 22.8 °F 13.6 °F 16.7 °F 77% 29.62 in 10.0 mi West 8.1 mph - N/A   Unknown
2:15 AM 22.6 °F 15.3 °F 16.7 °F 78% 29.62 in 10.0 mi WNW 5.8 mph - N/A   Unknown
2:55 AM 22.8 °F 14.5 °F 17.1 °F 79% 29.63 in 10.0 mi WNW 6.9 mph - N/A   Unknown
3:15 AM 22.8 °F 14.5 °F 17.2 °F 79% 29.62 in 10.0 mi WNW 6.9 mph - N/A   Unknown
3:35 AM 22.8 °F 13.6 °F 16.7 °F 77% 29.63 in 10.0 mi WNW 8.1 mph - N/A   Unknown
3:55 AM 22.6 °F 11.3 °F 16.7 °F 78% 29.62 in 10.0 mi WNW 11.5 mph - N/A   Unknown
4:15 AM 22.5 °F 16.3 °F 16.7 °F 79% 29.63 in 10.0 mi West 4.6 mph - N/A   Unknown
4:35 AM 22.5 °F 13.2 °F 16.7 °F 79% 29.63 in 10.0 mi WNW 8.1 mph - N/A   Unknown
4:55 AM 22.1 °F 12.8 °F 16.5 °F 79% 29.63 in 10.0 mi WNW 8.1 mph - N/A   Unknown
5:15 AM 22.1 °F 12.0 °F 16.5 °F 79% 29.63 in 10.0 mi West 9.2 mph - N/A   Unknown
5:35 AM 21.9 °F 13.4 °F 16.5 °F 80% 29.63 in 10.0 mi WNW 6.9 mph - N/A   Unknown
5:55 AM 21.9 °F 12.5 °F 16.3 °F 79% 29.64 in 10.0 mi WNW 8.1 mph - N/A   Unknown
6:15 AM 21.9 °F 15.7 °F 16.5 °F 80% 29.63 in 10.0 mi WNW 4.6 mph - N/A   Unknown
6:35 AM 22.1 °F 13.7 °F 16.3 °F 79% 29.63 in 10.0 mi WNW 6.9 mph - N/A   Unknown
7:15 AM 21.9 °F 12.5 °F 16.3 °F 79% 29.64 in 10.0 mi NW 8.1 mph - N/A   Unknown
7:35 AM 22.1 °F 14.7 °F 16.2 °F 78% 29.64 in 10.0 mi WNW 5.8 mph - N/A   Unknown
7:55 AM 22.1 °F 12.8 °F 16.2 °F 78% 29.64 in 10.0 mi WNW 8.1 mph - N/A   Unknown
8:15 AM 22.1 °F 12.8 °F 16.5 °F 79% 29.64 in 5.0 mi West 8.1 mph - N/A Snow Light Snow
8:55 AM 22.1 °F 11.3 °F 16.3 °F 79% 29.64 in 5.0 mi WNW 10.4 mph - N/A Snow Light Snow
9:15 AM 22.3 °F 12.2 °F 15.6 °F 76% 29.63 in 7.0 mi WNW 9.2 mph 16.1 mph N/A   Unknown
9:35 AM 22.8 °F 11.5 °F 14.9 °F 72% 29.63 in 10.0 mi WNW 11.5 mph - N/A   Unknown
9:55 AM 23.2 °F 12.0 °F 14.7 °F 70% 29.63 in 7.0 mi NW 11.5 mph 19.6 mph N/A Snow Light Snow
10:15 AM 23.9 °F 12.9 °F 15.1 °F 69% 29.63 in 5.0 mi NW 11.5 mph 17.3 mph N/A Snow Light Snow
10:35 AM 24.3 °F 14.6 °F 15.3 °F 69% 29.63 in 5.0 mi West 9.2 mph - N/A Snow Light Snow
10:55 AM 24.8 °F 15.3 °F 15.6 °F 68% 29.63 in 4.0 mi NW 9.2 mph 16.1 mph N/A Snow Light Snow
11:15 AM 25.2 °F 15.7 °F 15.6 °F 67% 29.63 in 10.0 mi West 9.2 mph - N/A Snow Light Snow
11:35 AM 25.2 °F 15.7 °F 15.4 °F 67% 29.63 in 7.0 mi WNW 9.2 mph 16.1 mph N/A Snow Light Snow
11:55 AM 25.7 °F 15.1 °F 15.8 °F 66% 29.63 in 7.0 mi West 11.5 mph 16.1 mph N/A Snow Light Snow
12:15 PM 25.2 °F 16.5 °F 16.7 °F 70% 29.63 in 2.5 mi West 8.1 mph - N/A Snow Light Snow
12:35 PM 25.7 °F 19.0 °F 16.9 °F 69% 29.63 in 3.0 mi NW 5.8 mph - N/A Snow Light Snow
12:55 PM 25.5 °F 16.9 °F 16.9 °F 70% 29.63 in 2.0 mi WNW 8.1 mph 16.1 mph N/A Snow Light Snow
1:15 PM 25.3 °F 16.0 °F 16.2 °F 68% 29.63 in 4.0 mi WNW 9.2 mph - N/A Snow Light Snow
1:55 PM 25.0 °F 15.5 °F 15.1 °F 66% 29.64 in 5.0 mi WNW 9.2 mph 16.1 mph N/A Snow Light Snow
2:15 PM 24.8 °F 15.3 °F 15.3 °F 67% 29.65 in 7.0 mi NW 9.2 mph - N/A Snow Light Snow
2:35 PM 24.6 °F 13.2 °F 14.5 °F 66% 29.65 in 10.0 mi NNW 12.7 mph - N/A   Unknown
2:55 PM 23.9 °F 12.3 °F 15.1 °F 69% 29.66 in 2.0 mi NW 12.7 mph 20.7 mph N/A Snow Light Snow
3:15 PM 23.9 °F 12.3 °F 15.3 °F 70% 29.66 in 10.0 mi WNW 12.7 mph - N/A Snow Light Snow
3:35 PM 23.2 °F 11.4 °F 15.8 °F 73% 29.66 in 4.0 mi NW 12.7 mph 18.4 mph N/A Snow Light Snow
3:55 PM 23.4 °F 12.2 °F 15.6 °F 72% 29.66 in 7.0 mi NW 11.5 mph 18.4 mph N/A Snow Light Snow
4:15 PM 23.0 °F 11.1 °F 16.2 °F 75% 29.68 in 1.5 mi NW 12.7 mph 17.3 mph N/A Snow Light Snow
4:35 PM 23.0 °F 10.1 °F 15.6 °F 73% 29.69 in 10.0 mi NW 15.0 mph 21.9 mph N/A   Unknown
4:55 PM 23.0 °F 11.7 °F 16.3 °F 76% 29.69 in 10.0 mi WNW 11.5 mph 18.4 mph N/A   Unknown
5:15 PM 22.5 °F 11.7 °F 16.7 °F 79% 29.71 in 5.0 mi NW 10.4 mph 16.1 mph N/A   Haze
5:35 PM 22.1 °F 11.3 °F 16.7 °F 80% 29.72 in 5.0 mi NNW 10.4 mph 17.3 mph N/A   Haze
5:55 PM 21.9 °F 12.5 °F 17.2 °F 82% 29.73 in 7.0 mi NW 8.1 mph - N/A   Unknown
6:35 PM 22.1 °F 12.8 °F 16.5 °F 79% 29.75 in 10.0 mi NW 8.1 mph - N/A   Unknown
6:55 PM 21.9 °F 11.7 °F 16.7 °F 80% 29.75 in 10.0 mi NNW 9.2 mph - N/A   Unknown
7:15 PM 22.1 °F 14.7 °F 16.7 °F 80% 29.76 in 10.0 mi NW 5.8 mph - N/A   Unknown
7:35 PM 21.9 °F 13.4 °F 17.1 °F 82% 29.76 in 7.0 mi NW 6.9 mph - N/A   Unknown
7:55 PM 22.1 °F 14.7 °F 17.1 °F 81% 29.77 in 10.0 mi NW 5.8 mph - N/A   Unknown
8:15 PM 22.1 °F 14.7 °F 16.9 °F 80% 29.78 in 7.0 mi NNW 5.8 mph - N/A Snow Light Snow
8:35 PM 21.9 °F 13.4 °F 16.5 °F 80% 29.78 in 7.0 mi NW 6.9 mph - N/A   Unknown
8:55 PM 22.1 °F 13.7 °F 16.5 °F 79% 29.78 in 10.0 mi NNW 6.9 mph - N/A Snow Light Snow
9:35 PM 22.5 °F 15.1 °F 16.5 °F 78% 29.79 in 10.0 mi NNW 5.8 mph - N/A   Unknown
9:55 PM 22.5 °F 17.8 °F 16.5 °F 78% 29.79 in 5.0 mi NNW 3.5 mph - N/A Snow Light Snow
10:15 PM 22.5 °F - 16.5 °F 78% 29.80 in 10.0 mi Calm Calm - N/A Snow Light Snow
10:35 PM 21.9 °F - 17.6 °F 83% 29.80 in 7.0 mi Calm Calm - N/A Snow Light Snow
10:55 PM 21.9 °F - 17.8 °F 84% 29.80 in 2.5 mi Calm Calm - N/A Snow Light Snow
11:15 PM 22.5 °F - 17.1 °F 80% 29.81 in 7.0 mi Calm Calm - N/A Snow Light Snow
11:35 PM 22.1 °F - 17.6 °F 83% 29.81 in 10.0 mi Calm Calm - N/A   Unknown
11:55 PM 22.1 °F - 18.0 °F 84% 29.81 in 10.0 mi Calm Calm - N/A   Unknown